Norfolk, VA

10:30 PM EDT on April 19, 2018 (GMT -0400)
Norfolk International

Weather History for KORF - October, 2012

Change the Weather History Date:

Friday, October 12, 2012

  Actual Average Record
Temperature  
Mean Temperature 57 °F 63 °F  
Max Temperature 68 °F 71 °F 86 °F (2010)
Min Temperature 45 °F 55 °F 36 °F (1964)
Degree Days  
Heating Degree Days 8 4  
Month to date heating degree days 35 31  
Since 1 July heating degree days 39 42  
Cooling Degree Days 0 2  
Month to date cooling degree days 55 34  
Year to date cooling degree days 1837 1599  
Growing Degree Days 6 (Base 50)    
Moisture  
Dew Point 45 °F    
Average Humidity 65    
Maximum Humidity 93    
Minimum Humidity 36    
Precipitation  
Precipitation 0.00 in 0.11 in 1.75 in (1891)
Month to date precipitation 1.90 1.36  
Year to date precipitation 35.85 38.06  
Snow  
Snow 0.00 in 0.00 in 0.00 in (2002)
Month to date snowfall 0.0 0.0  
Since 1 July snowfall 0.0 0.0  
Snow Depth 0.00 in    
Sea Level Pressure  
Sea Level Pressure 30.22 in    
Wind  
Wind Speed 11 mph (North)    
Max Wind Speed 26 mph    
Max Gust Speed 33 mph    
Visibility 10 miles    
Events      
T = Trace of Precipitation, MM = Missing Value Source: NWS Daily Summary

Daily Weather History Graph

Daily Weather History Graph

Search for Another Location

Airport or City:

Astronomy

Oct. 12, 2012 Rise Set
Actual Time 7:10 AM EDT 6:31 PM EDT
Civil Twilight 6:44 AM EDT 6:57 PM EDT
Nautical Twilight 6:13 AM EDT 7:27 PM EDT
Astronomical Twilight 5:43 AM EDT 7:57 PM EDT
Moon 3:54 AM EDT (10/12) 4:36 PM EDT (10/12)
Length of Visible Light 12h 13m
Length of Day
11h 21m
Waning Crescent, 11% of the Moon is Illuminated
Oct 12
Waning Crescent
Oct 15
New
Oct 21
First Quarter
Oct 29
Full
Nov 6
Last Quarter

Hourly Weather History & Observations

Time (EDT) Temp. Windchill Dew Point Humidity Pressure Visibility Wind Dir Wind Speed Gust Speed Precip Events Conditions
12:51 AM 48.9 °F - 44.1 °F 83% 30.22 in 10.0 mi SSW 3.5 mph - N/A   Clear
1:51 AM 48.9 °F - 44.1 °F 83% 30.22 in 10.0 mi SSW 3.5 mph - N/A   Clear
2:51 AM 48.0 °F - 44.1 °F 86% 30.20 in 10.0 mi SSW 4.6 mph - N/A   Clear
3:51 AM 46.0 °F 43.9 °F 43.0 °F 89% 30.18 in 10.0 mi SSW 4.6 mph - N/A   Clear
4:51 AM 46.9 °F - 44.1 °F 90% 30.17 in 10.0 mi South 3.5 mph - N/A   Clear
5:51 AM 46.9 °F - 45.0 °F 93% 30.17 in 10.0 mi Calm Calm - N/A   Clear
6:51 AM 48.0 °F - 45.0 °F 89% 30.17 in 10.0 mi SSW 4.6 mph - N/A   Clear
7:51 AM 50.0 °F - 46.9 °F 89% 30.18 in 10.0 mi South 4.6 mph - N/A   Clear
8:51 AM 57.0 °F - 50.0 °F 77% 30.18 in 10.0 mi SW 10.4 mph - N/A   Clear
9:51 AM 61.0 °F - 48.9 °F 64% 30.19 in 10.0 mi WSW 6.9 mph - N/A   Clear
10:51 AM 63.0 °F - 48.0 °F 58% 30.19 in 10.0 mi Variable 5.8 mph - N/A   Clear
11:51 AM 64.9 °F - 46.9 °F 52% 30.19 in 10.0 mi North 8.1 mph - N/A   Clear
12:51 PM 64.9 °F - 46.9 °F 52% 30.18 in 10.0 mi NNE 10.4 mph - N/A   Clear
1:51 PM 66.9 °F - 45.0 °F 45% 30.18 in 10.0 mi NNE 13.8 mph 20.7 mph N/A   Clear
2:51 PM 66.9 °F - 45.0 °F 45% 30.18 in 10.0 mi NNE 12.7 mph 18.4 mph N/A   Clear
3:51 PM 66.9 °F - 43.0 °F 42% 30.18 in 10.0 mi NNE 16.1 mph - N/A   Clear
4:51 PM 66.0 °F - 45.0 °F 47% 30.19 in 10.0 mi NNE 12.7 mph - N/A   Clear
5:51 PM 64.0 °F - 45.0 °F 50% 30.22 in 10.0 mi NNE 12.7 mph - N/A   Clear
6:51 PM 63.0 °F - 46.9 °F 56% 30.24 in 10.0 mi NNE 12.7 mph - N/A   Clear
7:51 PM 64.0 °F - 45.0 °F 50% 30.27 in 10.0 mi North 17.3 mph 27.6 mph N/A   Clear
8:51 PM 61.0 °F - 46.9 °F 60% 30.30 in 10.0 mi North 19.6 mph 27.6 mph N/A   Partly Cloudy
9:51 PM 60.1 °F - 44.1 °F 55% 30.34 in 10.0 mi NNE 20.7 mph 28.8 mph N/A   Partly Cloudy
10:51 PM 57.0 °F - 36.0 °F 45% 30.37 in 10.0 mi NE 21.9 mph 27.6 mph N/A   Clear
11:51 PM 57.0 °F - 30.9 °F 37% 30.38 in 10.0 mi NNE 20.7 mph 28.8 mph N/A   Clear